Location: G?julap?du
(16.5372°N, 81.0979°E)
Time: 11:28:44
(UTC+00:00)

Okean 1-7 - Pass Details

Date: 14 April 2026
Orbit: 564 x 588 km, 82.5° (Epoch: 12 May)

Event Time Altitude Azimuth Distance (km) Brightness Sun altitude
Rises 13:52:03 0° 355° (N) 2,749 6.7 -15.1°
Reaches altitude 10° 13:54:13 10° 356° (N) 1,853 5.7 -15.6°
Maximum altitude 13:58:18 89° 91° (E) 568 2.8 -16.6°
Drops below altitude 10° 14:02:24 10° 176° (S) 1,857 5.3 -17.5°
Enters shadow 14:03:28 - 176° (S) 2,301 5.8 -17.8°
